Flag for Ukraine Weather past 2 weeks in Odesa, Ukraine

Now
32 °F

Clear.


Feels Like: 26 °F
Forecast: 38 / 54 °F
Wind: 6 mph from North

Location: Odesa Airport

Current Time: Apr 22, 2015 at 7:24:38 AM

Latest Report: Apr 22, 2015 at 6:30 AM


Visibility: 10 mi

Pressure: 29.98 "Hg

Humidity: 93%

Dew point: 30 °F

Location of OdesaLocation

Historic Weather in Odesa — Graph

°F

Odesa temperature yesterday

Maximum temperature yesterday: 48 °F (at 12:00 PM)
Minimum temperature yesterday: 30 °F (at 5:30 AM)
Average temperature yesterday: 41 °F

Past Weeks' High & Low Weather Summary

 TemperatureHumidityPressure
High72 °F (Apr 13, 3:30 PM)100% (Apr 7, 7:30 AM)30.33 "Hg (Apr 7, 7:30 AM)
Low30 °F (Apr 21, 5:30 AM)18% (Apr 11, 1:30 PM)29.62 "Hg (Apr 18, 4:30 AM)
Average49 °F61%29.96 "Hg
* Reported Apr 7 6:00 AM — Apr 22 6:00 AM, Odesa, Weather by CustomWeather, © 2015

Note: Actual official high and low records may vary slightly from our data, if they occured in-between our weather recording intervals... More about our weather records

Advertising

Odesa weather history for previous 24 hours

 ConditionsComfort  
Time TempWeatherWind HumidityBarometerVisibility
6:00 AM
Wed, Apr 22
32 °FClear.6 mph93%29.98 "Hg10 mi
5:30 AM32 °FClear.3 mph100%29.95 "Hg10 mi
5:00 AM32 °FClear.3 mph100%29.95 "Hg10 mi
4:30 AM32 °FClear.8 mph93%29.98 "Hg10 mi
4:00 AM32 °FClear.1 mph93%29.98 "Hg10 mi
3:30 AM34 °FClear.6 mph93%29.98 "Hg10 mi
3:00 AM32 °FClear.6 mph93%29.98 "Hg10 mi
2:30 AM34 °FClear.3 mph93%29.98 "Hg10 mi
2:00 AM34 °FClear.6 mph93%29.98 "Hg10 mi
1:30 AM36 °FClear.No wind87%29.98 "Hg10 mi
1:00 AM36 °FClear.No wind93%29.98 "Hg10 mi
12:30 AM37 °FClear.No wind93%29.98 "Hg10 mi
12:00 AM37 °FPassing clouds.3 mph93%29.98 "HgN/A
11:30 PM
Tue, Apr 21
37 °FPassing clouds.No wind93%29.95 "HgN/A
11:00 PM37 °FPassing clouds.No wind93%29.95 "HgN/A
10:30 PM39 °FPassing clouds.No wind87%29.95 "HgN/A
10:00 PM39 °FPassing clouds.No wind87%29.95 "HgN/A
9:30 PM39 °FPassing clouds.No wind87%29.95 "HgN/A
9:00 PM39 °FSprinkles. Mostly cloudy.6 mph87%29.95 "HgN/A
8:30 PM41 °FSprinkles. Broken clouds.10 mph87%29.95 "HgN/A
8:00 PM39 °FPartly sunny.3 mph87%29.95 "HgN/A
7:30 PM41 °FPartly sunny.6 mph81%29.92 "HgN/A
7:00 PM43 °FPartly sunny.6 mph81%29.92 "HgN/A
6:30 PM43 °FSprinkles. Broken clouds.6 mph81%29.92 "HgN/A
6:00 PM41 °FPartly sunny.No wind81%29.92 "HgN/A
5:30 PM43 °FSprinkles. Broken clouds.13 mph76%29.92 "HgN/A
5:00 PM43 °FBroken clouds.3 mph81%29.92 "HgN/A
4:30 PM39 °FSprinkles. Broken clouds.10 mph87%29.92 "HgN/A
4:00 PM48 °FBroken clouds.8 mph58%29.89 "HgN/A
3:30 PM48 °FBroken clouds.8 mph54%29.89 "HgN/A
3:00 PM46 °FBroken clouds.3 mph57%29.92 "HgN/A
2:30 PM45 °FSprinkles. Broken clouds.10 mph57%29.92 "HgN/A
2:00 PM48 °FBroken clouds.6 mph40%29.92 "HgN/A
1:30 PM48 °FBroken clouds.10 mph40%29.92 "HgN/A
1:00 PM46 °FPassing clouds.10 mph37%29.92 "HgN/A
12:30 PM46 °FPassing clouds.13 mph34%29.92 "HgN/A
12:00 PM48 °FPartly sunny.10 mph34%29.92 "HgN/A
11:30 AM46 °FPartly sunny.10 mph40%29.92 "HgN/A
11:00 AM46 °FScattered clouds.10 mph40%29.92 "HgN/A
10:30 AM45 °FScattered clouds.8 mph46%29.92 "HgN/A
10:00 AM45 °FScattered clouds.13 mph42%29.92 "HgN/A
9:30 AM43 °FPassing clouds.13 mph49%29.89 "HgN/A
9:00 AM41 °FPassing clouds.10 mph57%29.89 "HgN/A
8:30 AM41 °FPassing clouds.10 mph53%29.89 "HgN/A
8:00 AM39 °FSunny.13 mph56%29.89 "Hg10 mi
7:30 AM37 °FPassing clouds.8 mph70%29.86 "HgN/A
7:00 AM34 °FSunny.8 mph81%29.86 "Hg10 mi
Weather by CustomWeather, © 2015

See weather overviewHow to use our weather pages